Clarksburg, WV

8:42 PM EST on November 22, 2019 (GMT -0500)
Benedum

Weather History for KCKB - May, 2019

Change the Weather History Date:

Wednesday, May 1, 2019

  Actual Average Record
Temperature  
Mean Temperature 73 °F 57 °F  
Max Temperature 91 °F 70 °F 91 °F (2019)
Min Temperature 55 °F 45 °F 29 °F (1978)
Degree Days  
Heating Degree Days 0 8  
Month to date heating degree days 0 8  
Since 1 July heating degree days 4306 5070  
Cooling Degree Days 8 0  
Month to date cooling degree days 8 0  
Year to date cooling degree days 33 9  
Growing Degree Days 22 (Base 50)    
Moisture  
Dew Point 54 °F    
Average Humidity 59    
Maximum Humidity 93    
Minimum Humidity 24    
Precipitation  
Precipitation 0.00 in 0.10 in 0.67 in (1950)
Month to date precipitation 0.00 0.10  
Year to date precipitation 14.13 14.28  
Sea Level Pressure  
Sea Level Pressure 30.09 in    
Wind  
Wind Speed 6 mph (SW)    
Max Wind Speed 22 mph    
Max Gust Speed 30 mph    
Visibility 9 miles    
Events      
T = Trace of Precipitation, MM = Missing Value Source: NWS Daily Summary

Daily Weather History Graph

Daily Weather History Graph

Search for Another Location

Airport or City:

Astronomy

May. 01, 2019 Rise Set
Actual Time 6:22 AM EDT 8:14 PM EDT
Civil Twilight 5:53 AM EDT 8:43 PM EDT
Nautical Twilight 5:18 AM EDT 9:18 PM EDT
Astronomical Twilight 4:40 AM EDT 9:56 PM EDT
Moon 5:05 AM EDT (5/1) 5:02 PM EDT (5/1)
Length of Visible Light 14h 49m
Length of Day
13h 51m
Waning Crescent, 11% of the Moon is Illuminated
May 1
Waning Crescent
May 4
New
May 11
First Quarter
May 18
Full
May 26
Last Quarter

Hourly Weather History & Observations

Time (EDT) Temp. Heat Index Dew Point Humidity Pressure Visibility Wind Dir Wind Speed Gust Speed Precip Events Conditions
12:53 AM 57.0 °F - 53.1 °F 87% 30.12 in 9.0 mi North 3.5 mph - N/A   Clear
1:53 AM 55.9 °F - 53.1 °F 90% 30.10 in 9.0 mi Calm Calm - N/A   Clear
2:53 AM 57.0 °F - 54.0 °F 89% 30.10 in 7.0 mi Calm Calm - N/A   Clear
3:53 AM 55.9 °F - 53.1 °F 90% 30.10 in 6.0 mi Calm Calm - N/A   Clear
4:53 AM 55.9 °F - 53.1 °F 90% 30.12 in 6.0 mi Calm Calm - N/A   Clear
5:53 AM 57.0 °F - 53.1 °F 87% 30.13 in 9.0 mi Calm Calm - N/A   Clear
6:53 AM 57.9 °F - 53.1 °F 84% 30.14 in 8.0 mi Calm Calm - N/A   Clear
7:53 AM 63.0 °F - 57.0 °F 81% 30.16 in 9.0 mi Calm Calm - N/A   Clear
8:53 AM 71.1 °F - 60.1 °F 68% 30.17 in 10.0 mi Calm Calm - N/A   Clear
9:53 AM 77.0 °F - 60.1 °F 56% 30.16 in 10.0 mi South 6.9 mph - N/A   Clear
10:53 AM 80.1 °F 80.9 °F 60.1 °F 50% 30.16 in 10.0 mi SW 8.1 mph - N/A   Clear
11:53 AM 82.9 °F 82.8 °F 59.0 °F 44% 30.14 in 10.0 mi WSW 9.2 mph 18.4 mph N/A   Clear
12:53 PM 86.0 °F 84.9 °F 57.0 °F 37% 30.11 in 10.0 mi SW 11.5 mph - N/A   Clear
1:53 PM 87.1 °F 84.9 °F 53.1 °F 31% 30.09 in 10.0 mi SW 15.0 mph - N/A   Clear
2:53 PM 89.1 °F 86.7 °F 53.1 °F 29% 30.06 in 10.0 mi SW 15.0 mph 25.3 mph N/A   Clear
3:53 PM 89.1 °F - 52.0 °F 28% 30.04 in 10.0 mi SW 15.0 mph 25.3 mph N/A   Clear
4:53 PM 90.0 °F - 48.0 °F 24% 30.02 in 10.0 mi West 13.8 mph 23.0 mph N/A   Clear
5:53 PM 88.0 °F - 46.9 °F 24% 30.02 in 10.0 mi WSW 15.0 mph 28.8 mph N/A   Clear
6:53 PM 84.9 °F - 46.9 °F 27% 30.02 in 10.0 mi WSW 8.1 mph - N/A   Clear
7:53 PM 82.0 °F - 51.1 °F 34% 30.03 in 10.0 mi SW 5.8 mph - N/A   Clear
8:53 PM 81.0 °F - 52.0 °F 36% 30.05 in 10.0 mi West 10.4 mph - N/A   Clear
9:53 PM 78.1 °F - 52.0 °F 40% 30.06 in 10.0 mi WSW 6.9 mph - N/A   Clear
10:53 PM 75.9 °F - 52.0 °F 43% 30.06 in 10.0 mi SSW 3.5 mph - N/A   Clear
11:53 PM 72.0 °F - 54.0 °F 53% 30.06 in 10.0 mi South 4.6 mph - N/A   Scattered Clouds